sat.trackr.live / text

‹ back to catalog

AE5RA

NORAD 66685 · 2025-276V

PAYLOAD ACTIVE UNKNOWN

§ Identity

Operator
Country
JPN
Launch date
2025-11-28
Launch site
AFWTR
Launch vehicle
Mass (kg)
RCS (m²)

External: N2YO · Heavens-Above · Gunter

§ Orbital elements

Epoch: 2026-05-25T03:28:45.902208Z

Period
94.60 min
Inclination
97.4220°
Eccentricity
0.0006403
Mean motion
15.22232556 rev/d
Perigee alt
494.7 km
Apogee alt
503.5 km
Semi-major
6,877.2 km
B*
4.8511e-4
RAAN
219.4414°
Arg perigee
95.6513°
Mean anomaly
264.5454°
Rev number
2,694

§ Raw data

AE5RA1 66685U 25276V   26145.14497572  .00011096  00000+0  48511-3 0  99982 66685  97.4220 219.4414 0006403  95.6513 264.5454 15.22232556 26948

JSON: /api/v1/satellites/66685 · /tle

For live sub-satellite position, see the globe view (requires WebGL).

§ Visibility from observer

Set your observer location to see the next 7 days of passes ≥ 10°. The values pass through the URL so the page stays shareable.

No JS? Fill the form by hand. The geolocation button needs JavaScript.